Regional Weather Roundup
Issued by NWS

Home | Current Version | Previous Version | Text Only | Print | Product List | Glossary On
Versions: 1 2 3 4 5 6 7 8 9 10 11 12 13 14 15 16 17 18 19 20 21 22 23 24 25 26 27 28 29 30 31 32 33 34 35 36 37 38 39 40 41 42 43 44 45 46 47 48 49 50
000
ASUS42 KTBW 022110
RWRFL
FLORIDA REGIONAL WEATHER ROUNDUP
NATIONAL WEATHER SERVICE TAMPA BAY RUSKIN FL
400 PM EST MON MAR 02 2015

NOTE: "FAIR" INDICATES FEW OR NO CLOUDS BELOW 12,000 FEET WITH NO
SIGNIFICANT WEATHER AND/OR OBSTRUCTIONS TO VISIBILITY.


FLZ001>010-012>015-112-114-115-022200-
PANHANDLE FLORIDA

CITY           SKY/WX    TMP DP  RH WIND       PRES   REMARKS
PENSACOLA      CLOUDY    67  62  84 SE7       30.23F
PENSACOLA NAS  CLOUDY    66  62  87 SE6       30.23F
MILTON NAS     CLOUDY    72  63  73 S9        30.22F
CRESTVIEW      CLOUDY    73  63  70 S5        30.24F
DUKE FIELD     CLOUDY    72  63  73 S8        30.22F
VALPARAISO     CLOUDY    65  59  81 SW7       30.23F
MARY ESTHER    CLOUDY    64  58  80 S8        30.23F
TRI COUNTY     CLOUDY    67  59  75 NE3       30.25F
PANAMA CITY    FAIR      72  64  76 S7        30.23F
TYNDALL AFB    CLOUDY    68  63  84 VRB2      30.24F
APALACHICOLA   SUNNY     71  63  75 SW8       30.23F

STATION/POSITION SKY/WX   TEMP    WIND        PRES    WAVE   SWELL
                          AIR SEA DIR/SP/G            HT/PER HT/PER
                          (F)     (DEG/KT/KT) (MB)    (FT/S) (FT/S)
30.1N   87.6W              64 64  100/  8/  8 1022.8F   2/ 6   2/ 6
29.2N   88.2W              71 72  160/ 10/ 12 1023.6    3/ 6   2/ 6
28.7N   86.0W              68 67  150/  4/  4 1023.9F   2/ 6   2/ 6
PANAMA CITY BEAC           62 60  160/  4/  4 1023.6F
CAPE SAN BLAS    NOT AVBL
TOWER C                    59     350/  5/  5 1023.9F
28.5N   84.5W              65 67  160/  6/  8 1023.2F   1/ 6

$$
FLZ011-016>038-118-127-128-134-139-239-022200-
NORTH FLORIDA

CITY           SKY/WX    TMP DP  RH WIND       PRES   REMARKS
MARIANNA       CLOUDY    68  62  81 CALM      30.24S
TALLAHASSEE    CLOUDY    78  61  55 N7        30.22F
PERRY          MOSUNNY   76  66  70 SW9       30.23S
CROSS CITY       N/A     81  65  58 SW9       30.20F
LAKE CITY      FAIR      81  63  54 SW5       30.20F
GAINESVILLE    MOSUNNY   82  62  50 VRB3      30.21F
MAYPORT NAS    FOG       57  54  89 NE8       30.24S VSB 1/2
JACKSONVILLE   PTSUNNY   75  65  70 E9        30.21F
JAX NAS        PTSUNNY   81  63  54 E5        30.21F
JAX CRAIG      SUNNY     67  57  70 E10       30.23S
JAX CECIL      PTSUNNY   82  64  54 NW6       30.21S
FERNANDINA BEA FAIR      64  57  77 E6        30.22F
ST AUGUSTINE   SUNNY     63  58  83 NE10      30.24R

STATION/POSITION SKY/WX   TEMP    WIND        PRES    WAVE   SWELL
                          AIR SEA DIR/SP/G            HT/PER HT/PER
                          (F)     (DEG/KT/KT) (MB)    (FT/S) (FT/S)
SHELL POINT                64     140/  9/ 10   N/A
KEATON BEACH               61     300/  5/  6 1024.0F
CEDAR KEY                  69     230/  4/  5 1024.0F
FERNANDINA                 62 54  100/  3/  7 1023.1F
30.7N   81.3W                 54                N/A     3/ 8
MAYPORT                    54 57   70/  7/  8 1023.9F
31.4N   80.9W              54 54  180/  4/  6 1023.7F   3/ 9   3/ 9
ST AUGUSTINE               58     170/  3/  3 1024.1F

$$
FLZ040-043>046-052-053-057-058-063-144-022200-
INTERIOR CENTRAL FLORIDA

CITY           SKY/WX    TMP DP  RH WIND       PRES   REMARKS
OCALA          MOSUNNY   82  63  51 N5        30.21F
THE VILLAGES     N/A     82  64  54 SW3       30.12S
LEESBURG       SUNNY     79  64  60 S6        30.22F
SANFORD        SUNNY     82  63  52 CALM      30.21F
ORLANDO EXEC   PTSUNNY   81  64  56 N3        30.21F
ORLANDO INTL   PTSUNNY   84  66  54 CALM      30.21S
KISSIMMEE      MOSUNNY   82  66  57 VRB5      30.21F
WINTER HAVEN   MOSUNNY   82  64  54 E5        30.22F
LAKELAND       MOSUNNY   82  63  51 CALM      30.21F
BARTOW         PTSUNNY   79  61  53 CALM      30.22S
OKEECHOBEE     SUNNY     81  63  54 E5        30.19S

$$
FLZ041-047-054-059-064-141-147-022200-
EAST CENTRAL FLORIDA

CITY           SKY/WX    TMP DP  RH WIND       PRES   REMARKS
ORMOND BEACH   SUNNY     77  64  65 E6        30.21S
DAYTONA BEACH  CLOUDY    79  64  60 NE7       30.22F
DELAND           N/A    N/A N/A N/A CALM      30.22S
NEW SMYRNA BEA MOSUNNY   73  64  73 E7        30.23F
JFK SPACE CTR  SUNNY     72  65  78 NE8       30.22S
TITUSVILLE     MOSUNNY   73  66  78 NE12      30.23F
CAPE CANAVERAL SUNNY     70  64  82 NE8       30.22S
PATRICK AFB    SUNNY     68  65  91 NE12      30.22S
MELBOURNE      MOSUNNY   72  65  78 NE13      30.22S
VERO BEACH     SUNNY     76  67  73 NE8       30.21F
FT PIERCE      SUNNY     77  68  73 VRB7      30.21S

STATION/POSITION SKY/WX   TEMP    WIND        PRES    WAVE   SWELL
                          AIR SEA DIR/SP/G            HT/PER HT/PER
                          (F)     (DEG/KT/KT) (MB)    (FT/S) (FT/S)
28.5N   80.2W              68 71  350/ 10/ 10 1023.7F
28.9N   78.5W              75 76  300/  4/  6 1023.6S   5/ 8   5/ 8
TRIDENT PIER               75 65   10/  7/  9 1023.9F
28.4N   80.5W                 64                N/A     3/10   2/11
27.6N   80.2W                 72                N/A     4/10   2/11

$$
FLZ050-056-061-142-242-148-248-149-249-151-251-155-255-
160-260-022200-
WEST CENTRAL FLORIDA

CITY           SKY/WX    TMP DP  RH WIND       PRES   REMARKS
CRYSTAL RIVER  FAIR      79  64  61 NW5       30.21S
INVERNESS      FAIR      82  59  44 CALM      30.21F
BROOKSVILLE    PTSUNNY   79  67  66 W9        30.21F
ZEPHYRHILLS    FAIR      82  59  44 CALM      30.21F
CLEARWATER     MOSUNNY   80  67  64 NW9       30.20F
TAMPA INTL     MOSUNNY   79  62  56 W10       30.20F
TAMPA EXEC     MOSUNNY   86  63  45 E3        30.20F
PLANT CITY     PTSUNNY  N/A N/A N/A E7        30.22S
MACDILL AFB    SUNNY     82  69  63 SE5       30.20F
PETER O KNIGHT SUNNY     82  68  61 SW5       30.20F
ST PETERSBURG  SUNNY     82  65  56 CALM      30.18F
SARASOTA       PTSUNNY   77  67  71 W12       30.18F
VENICE         FAIR      75  68  78 NW14      30.20F

STATION/POSITION SKY/WX   TEMP    WIND        PRES    WAVE   SWELL
                          AIR SEA DIR/SP/G            HT/PER HT/PER
                          (F)     (DEG/KT/KT) (MB)    (FT/S) (FT/S)
CEDAR KEY                  69     230/  4/  5 1024.0F
28.5N   84.5W              65 67  160/  6/  8 1023.2F   1/ 6
27.3N   84.3W                 72                N/A     2/ 4
CLEARWATER BEACH NOT AVBL
MIDDLE TAMPA BAY           71     310/  8/ 10 1023.1F
VENICE                     71 66  330/ 12/ 12 1022.0F

$$
FLZ066-069-070-075>078-162-262-165-265-022200-
SOUTHWEST FLORIDA AND KEYS

CITY           SKY/WX    TMP DP  RH WIND       PRES   REMARKS
PUNTA GORDA    MOSUNNY   82  62  50 NE9       30.19F
FT MYERS       CLOUDY    83  62  49 NE9       30.15F
SOUTHWEST INTL PTSUNNY   84  59  42 E13       30.16F
NAPLES         SUNNY     79  68  69 W10       30.16F
MARCO ISLAND   PTCLDY    81  64  57 W8        30.16F
IMMOKALEE      MOCLDY   N/A N/A N/A E9        30.17F
MARATHON       MOSUNNY   79  69  71 E10       30.16S
KEY WEST NAS   MOSUNNY   79  68  69 E15       30.16S
KEY WEST INTL  SUNNY     79  70  74 E12       30.16F

STATION/POSITION SKY/WX   TEMP    WIND        PRES    WAVE   SWELL
                          AIR SEA DIR/SP/G            HT/PER HT/PER
                          (F)     (DEG/KT/KT) (MB)    (FT/S) (FT/S)
VENICE                     71 66  330/ 12/ 12 1022.0F
NAPLES                     72 69  290/  4/  5 1021.3F
26.0N   85.6W              74 78   50/ 10/ 12 1021.9F   3/ 4   2/ 7
DRY TORTUGAS               72      70/ 10/ 11 1021.4F
SAND KEY                   75      90/ 13/ 14 1021.0F
SOMBRERO KEY               76      80/ 12/ 13 1021.7F
LONG KEY                   76 79   80/ 12/ 14 1022.2F
MOLASSES REEF              75 78   80/ 12/ 12 1021.2F

$$
FLZ067-068-071>074-168-172>174-022200-
SOUTHEAST FLORIDA

CITY           SKY/WX    TMP DP  RH WIND       PRES   REMARKS
W PALM BEACH   PTSUNNY   80  67  64 E12       30.18F
FT LAUDER-EXEC MOSUNNY   80  64  58 E12       30.18F
FT LAUDERDALE  MOSUNNY   77  68  73 E10       30.18S
POMPANO BEACH  MOSUNNY   78  65  63 E10       30.19S
PEMBROKE PINES SUNNY     80  62  54 E9        30.19S
OPA LOCKA      SUNNY     81  61  50 E13       30.18F
MIAMI          MOSUNNY   80  61  52 E13       30.18S
WEST KENDALL   SUNNY     80  61  52 E12       30.17F
HOMESTEAD      SUNNY     79  66  64 NE12      30.17S

STATION/POSITION SKY/WX   TEMP    WIND        PRES    WAVE   SWELL
                          AIR SEA DIR/SP/G            HT/PER HT/PER
                          (F)     (DEG/KT/KT) (MB)    (FT/S) (FT/S)
PORT EVERGLADES            77      70/  6/ 10 1022.0
VIRGINIA KEY               76 77   70/  9/ 11 1021.4F
LAKE WORTH                 75 76   60/  8/  9 1022.1F



USA.gov is the U.S. government's official web portal to all federal, state and local government web resources and services.